RH
29 26 26 24 22 23 24 25 24 24 27 28 29 29 27 26 26 23 26 38 41 35 29 29 30 26 22 18 16 23 31 35 39 43 47 51 54 57 60 63 64 66 69 70 67 60 53 46 39 40 64 89 91 92 99 99 99 98 96 98 100 100 100 100 100 100 100 100 100 100 99 99 100 100 99 100 99 99 100 99 90 81 83 87 86 85
30 26 24 23 22 23 25 25 28 31 33 33 31 29 29 29 27 25 30 39 41 35 30 27 28 24 18 16 22 32 38 41 45 48 50 54 56 60 63 65 65 66 68 67 65 64 60 54 49 41 51 81 98 98 98 100 101 99 98 98 99 100 100 100 100 100 100 100 99 100 96 93 97 99 98 95 94 95 97 98 95 89 87 88 88 86
27 24 22 27 28 29 32 32 33 35 35 34 31 31 32 28 23 23 29 34 35 33 27 25 27 21 17 21 30 36 40 46 50 52 54 56 57 60 63 66 66 66 68 67 66 67 66 62 58 52 49 62 85 99 101 99 99 100 99 99 100 100 100 100 100 100 100 100 100 99 92 85 89 95 94 89 87 91 95 95 94 93 90 88 88 88
17 17 28 36 32 30 33 38 39 37 35 32 29 31 30 26 23 22 24 29 31 31 26 27 29 22 20 27 34 39 44 48 51 54 56 58 59 61 64 67 67 68 68 69 69 67 67 68 65 62 58 55 65 86 99 101 100 100 99 100 100 100 100 100 100 101 99 99 100 97 90 86 90 94 92 91 89 90 96 97 94 94 93 90 89 88
13 22 39 39 31 27 27 35 37 31 28 27 29 30 27 25 25 22 23 28 28 27 27 26 20 16 20 25 31 38 42 46 50 53 56 59 62 63 65 68 70 72 72 71 72 71 66 66 67 68 67 62 59 67 80 92 99 100 99 100 100 100 100 100 100 100 98 99 100 98 95 93 95 95 95 96 94 91 95 97 93 93 94 91 90 89
19 32 41 33 29 30 27 29 31 27 24 23 26 29 27 26 26 26 28 28 22 18 20 18 10 10 14 17 28 36 39 43 49 51 55 59 63 66 67 70 73 74 75 74 74 74 68 61 61 63 67 70 67 65 68 74 86 98 100 99 99 100 100 100 100 99 99 99 100 100 99 98 97 97 97 96 94 91 90 91 90 93 95 92 91 91
26 36 40 31 29 32 30 27 29 31 26 22 26 28 29 30 29 31 31 27 18 12 15 15 11 11 11 14 28 39 41 44 47 50 55 59 63 67 69 72 77 78 78 78 76 74 69 60 55 55 58 66 70 72 72 69 72 85 96 100 100 99 99 100 101 100 99 99 99 99 99 100 98 99 98 90 89 91 86 88 92 91 93 94 93 91
27 32 36 32 30 29 27 24 28 33 26 23 29 28 26 27 26 27 27 23 17 13 15 14 12 13 11 16 28 35 41 47 49 50 54 58 62 66 70 73 77 81 82 81 79 75 69 59 51 49 49 54 60 64 69 71 71 75 83 93 99 100 99 98 99 99 99 99 98 98 98 100 98 99 99 89 85 88 83 88 95 90 88 93 92 88
24 24 29 30 28 24 22 25 31 34 25 22 28 27 24 24 21 21 21 20 17 18 20 14 13 17 14 18 29 31 37 48 53 53 54 58 62 66 70 73 77 82 85 85 82 77 73 66 54 47 44 45 49 53 58 64 69 73 76 82 90 97 99 99 98 98 99 99 99 99 99 99 97 94 94 90 90 92 86 86 94 93 90 90 89 87
23 26 29 27 24 20 25 34 37 34 27 28 32 28 27 26 23 22 20 19 20 23 25 16 12 16 13 16 26 31 40 54 55 51 53 57 64 68 70 74 77 81 85 88 85 76 71 69 60 49 43 41 41 43 48 52 57 65 70 75 80 87 94 99 100 99 98 98 98 99 100 100 98 95 93 93 96 99 97 93 92 94 94 89 88 89
26 36 37 31 28 27 31 39 43 41 35 36 32 23 23 23 22 24 22 21 25 25 23 17 12 15 15 19 33 44 54 62 58 51 52 56 62 69 71 74 77 79 83 88 90 82 70 64 59 52 47 44 40 38 39 41 45 51 58 66 71 77 84 90 95 99 99 99 98 97 97 98 99 99 98 98 99 99 100 98 95 93 93 92 89 88
24 31 33 35 38 36 32 33 40 42 35 31 26 21 22 19 18 24 23 24 27 23 20 19 18 15 15 25 44 57 60 61 59 56 55 55 60 67 72 74 75 78 83 86 91 88 75 66 62 58 54 49 45 41 37 35 36 40 45 51 57 63 70 75 82 87 92 96 98 99 98 98 98 98 99 98 99 100 99 99 97 94 93 95 94 92
16 21 28 36 39 37 29 22 27 34 29 27 24 23 26 22 20 22 22 24 23 20 19 20 21 17 18 35 51 56 55 54 56 57 56 57 62 67 71 74 75 77 81 85 91 91 81 73 70 69 68 63 55 48 42 37 34 32 34 38 44 51 57 63 68 73 77 82 87 93 97 99 98 98 98 98 98 99 99 99 99 99 99 99 97 96
16 21 30 32 31 36 31 17 17 23 25 26 23 22 24 24 26 27 23 22 21 19 19 17 21 19 22 45 55 49 51 52 52 56 58 59 63 67 70 73 75 77 80 84 89 93 88 78 74 75 77 75 67 58 49 43 39 34 31 31 33 38 45 52 58 63 67 71 74 80 86 92 96 96 97 98 98 99 99 100 100 100 100 100 99 98
19 20 25 26 25 32 31 20 16 17 19 23 20 19 24 24 28 31 26 26 26 21 18 20 24 21 25 45 53 47 50 53 52 55 58 60 63 66 69 72 75 77 80 83 85 90 89 81 76 74 71 70 67 64 60 52 45 41 37 33 31 31 34 38 45 52 58 64 67 71 75 79 85 89 92 94 94 95 95 97 98 99 100 101 100 99
19 14 17 28 34 32 29 24 20 17 17 21 18 18 25 23 22 27 24 25 28 24 24 24 24 33 44 52 52 50 52 53 55 57 57 58 62 64 69 73 74 76 76 78 81 85 87 84 80 78 75 71 66 66 68 64 57 51 44 40 36 33 32 31 34 39 45 52 58 64 68 70 73 77 81 86 89 91 91 91 92 93 95 98 100 101
22 17 15 27 36 33 29 28 24 22 19 19 21 20 22 19 17 25 27 24 28 31 31 21 21 43 56 54 54 52 52 53 54 56 56 56 60 63 68 73 72 71 73 77 80 82 85 83 78 76 77 76 70 65 65 65 65 62 58 52 44 36 34 33 32 32 35 40 46 53 59 64 68 70 71 74 76 80 84 86 88 88 88 90 94 99
27 26 18 19 27 31 37 37 31 31 24 17 22 23 20 21 19 23 31 31 33 36 31 21 25 36 37 49 68 62 54 57 55 53 54 54 59 65 68 71 70 65 64 69 75 78 82 80 74 71 71 73 74 70 68 67 64 62 61 59 55 45 37 35 34 33 32 33 36 41 48 54 60 64 67 69 70 70 72 75 79 83 85 86 88 92
29 31 23 20 25 29 35 35 29 32 31 24 26 23 21 30 29 27 35 39 40 41 36 28 29 29 27 50 76 70 60 63 58 53 54 53 58 65 69 71 69 62 57 58 65 72 78 78 71 66 62 61 63 64 69 75 70 63 56 53 55 54 47 40 36 33 32 32 33 35 39 45 51 56 61 65 68 69 69 69 70 73 76 79 82 86
29 30 26 24 26 25 24 26 23 25 30 30 29 24 23 31 33 32 35 36 39 43 43 40 34 36 45 55 64 66 65 65 61 57 56 54 55 61 66 68 64 59 54 51 57 67 76 76 69 63 60 59 58 56 61 72 73 66 56 50 52 54 50 44 37 33 33 32 33 33 34 38 44 49 54 57 62 66 68 70 70 70 71 70 71 76
29 28 28 23 22 22 20 20 19 18 24 29 31 32 31 29 29 34 36 35 40 42 45 50 44 43 56 56 56 65 64 61 61 59 56 54 54 55 58 62 60 56 52 49 53 64 74 74 66 59 58 62 64 61 64 71 70 64 57 55 59 57 49 44 40 36 34 33 33 34 34 35 38 42 48 51 55 59 63 68 69 70 71 72 71 70
27 26 29 25 23 23 18 18 22 23 24 26 28 31 32 31 33 45 51 44 43 44 45 51 47 49 63 57 52 61 60 59 61 57 55 53 50 51 51 55 58 53 50 50 51 62 73 70 63 57 53 57 61 62 66 70 66 61 57 59 66 66 53 42 38 37 37 36 35 34 35 36 38 40 43 47 50 53 56 61 67 70 70 71 72 72
33 32 36 35 28 23 21 24 28 28 24 26 29 28 31 36 38 48 56 48 46 49 49 50 50 61 75 63 55 62 61 60 60 53 51 48 44 47 45 47 53 51 51 51 50 62 72 67 59 54 52 55 60 62 64 63 58 57 58 60 67 71 62 48 39 36 37 37 37 37 36 37 39 41 42 44 47 50 52 55 59 65 70 71 71 72
39 38 40 42 32 22 23 26 28 29 27 28 31 32 38 45 44 48 51 48 53 56 55 60 63 72 79 66 59 65 58 54 53 47 46 44 41 42 40 42 49 50 52 52 51 62 71 66 58 54 53 57 63 65 63 59 55 55 58 61 63 67 67 59 49 41 37 36 36 37 38 39 40 42 43 44 45 47 50 53 54 57 63 69 72 72
42 36 40 51 46 35 30 26 25 29 28 29 34 41 49 56 61 63 55 53 64 62 57 66 69 71 77 70 62 60 52 47 46 43 42 39 37 38 38 41 47 50 54 53 51 58 65 63 58 55 56 61 67 68 64 60 58 57 60 64 65 65 64 62 60 53 44 39 38 36 37 40 41 43 46 46 45 45 46 49 53 55 57 61 68 74
50 43 46 56 58 52 45 32 27 33 37 36 40 47 58 72 78 70 58 62 73 65 58 67 72 69 68 68 64 56 47 44 42 39 38 34 34 36 37 40 44 49 53 52 51 56 62 61 57 56 58 61 67 69 65 62 60 60 64 67 69 70 65 60 60 57 50 46 44 40 37 39 41 45 49 50 49 47 47 47 49 53 57 59 62 69
51 50 46 47 51 49 43 32 29 40 45 43 48 56 70 91 91 70 62 70 75 74 70 71 81 80 67 66 68 55 45 43 39 36 35 33 35 38 39 40 43 48 52 52 52 54 58 58 57 58 59 61 66 69 66 65 63 62 66 69 72 75 71 64 61 58 55 52 52 51 47 43 44 46 49 52 52 51 50 50 49 50 53 58 62 65
51 56 50 49 49 41 38 38 37 41 41 43 57 66 75 94 95 79 75 72 72 87 87 70 75 81 69 68 69 54 44 42 37 35 36 36 38 40 41 43 45 48 50 51 53 53 56 59 57 58 60 60 63 66 65 65 65 65 68 71 74 76 75 69 65 63 60 54 53 59 57 52 51 52 53 55 55 54 54 54 55 54 53 55 59 64
50 57 59 65 61 46 41 41 36 34 37 47 62 64 69 89 95 88 83 71 69 88 87 68 67 70 66 68 63 48 45 43 40 40 39 39 42 42 44 46 46 49 51 52 55 56 58 59 57 58 61 60 62 66 65 64 66 69 71 72 74 76 77 76 71 68 67 59 54 58 58 56 57 59 60 61 60 59 58 58 59 59 57 57 58 62
49 56 70 77 67 50 42 37 36 42 49 58 64 59 63 75 77 75 75 66 63 70 66 60 62 58 57 63 56 47 47 43 40 43 42 41 43 42 44 47 48 51 54 56 60 61 60 58 57 59 60 60 63 67 66 66 67 70 74 77 79 79 81 82 78 74 72 65 57 57 56 56 60 64 66 67 67 66 64 63 63 63 61 60 61 63
47 56 75 76 62 51 44 38 42 48 52 61 63 58 60 65 64 67 68 62 62 64 57 57 63 60 55 55 51 47 46 41 39 41 41 42 43 44 45 47 49 54 60 62 62 61 58 56 56 58 59 62 66 69 69 70 70 72 74 78 85 87 86 87 86 82 77 68 60 58 56 55 63 71 72 71 70 69 68 67 66 67 67 65 64 67
53 58 67 65 64 62 47 39 43 41 45 65 75 68 65 67 66 65 61 58 63 69 68 68 73 72 62 53 49 45 41 41 41 39 40 42 44 45 45 46 51 59 65 67 62 58 57 56 56 57 59 62 67 69 71 72 72 76 77 79 86 92 92 92 92 89 82 70 63 62 60 59 68 77 77 75 72 69 69 69 68 68 70 70 69 71
71 71 63 62 75 71 47 40 45 40 48 75 83 74 68 68 67 63 58 55 55 60 71 79 78 71 60 52 50 46 42 44 44 42 41 43 46 48 46 49 60 69 70 66 61 57 58 59 60 61 62 65 67 68 72 75 77 81 82 82 89 95 96 96 94 94 88 75 67 67 62 62 73 82 82 79 76 72 70 69 68 69 71 72 74 77
84 79 68 66 78 76 55 46 47 45 61 83 78 64 63 68 72 72 67 60 54 55 66 72 68 59 52 49 50 50 48 47 47 47 46 46 50 51 48 52 66 72 68 64 62 62 63 64 65 66 68 71 72 72 75 80 84 87 86 85 93 99 97 94 92 95 93 81 73 70 63 63 74 84 85 82 79 77 74 71 69 70 72 74 77 82
86 79 71 69 76 74 59 59 68 69 76 82 68 53 56 60 61 65 62 53 50 57 66 66 59 52 49 49 49 49 50 50 51 53 51 48 47 47 50 57 65 67 65 66 66 66 68 71 72 74 75 77 80 81 81 83 87 89 88 90 99 101 94 89 89 93 94 86 77 70 63 64 76 84 85 83 81 79 77 76 74 72 73 77 80 86
89 82 71 68 74 71 62 70 83 81 75 72 63 56 58 59 60 67 68 54 46 59 70 65 55 50 49 50 48 48 50 52 53 53 50 46 44 48 56 58 58 60 64 70 72 70 72 75 78 83 85 87 91 88 83 82 84 87 93 98 100 93 86 90 95 95 93 86 76 69 65 68 79 86 86 83 80 79 79 80 79 76 76 79 83 88
75 70 64 66 70 69 72 74 69 65 70 74 74 69 65 66 67 75 85 75 60 62 64 55 51 52 52 51 50 49 52 55 56 50 45 44 44 47 53 54 55 61 66 73 76 74 76 80 82 88 93 95 95 86 80 87 91 93 99 99 87 78 83 95 101 98 91 82 73 69 68 73 83 89 88 84 80 80 83 85 85 82 82 83 85 89
58 58 63 71 68 63 74 78 68 69 80 85 82 71 64 65 59 61 83 88 70 59 52 47 52 56 52 51 54 55 59 66 64 50 41 44 46 46 53 56 58 63 69 76 79 79 84 89 89 93 98 98 94 87 86 92 94 96 101 93 80 81 93 101 100 95 89 80 74 71 72 79 89 92 89 85 82 84 89 91 91 89 88 89 90 92
54 53 53 64 70 69 79 86 79 77 85 90 86 71 62 62 50 53 82 85 59 49 51 52 59 59 53 55 61 65 71 74 68 54 48 56 59 59 64 65 64 70 76 79 82 87 94 96 94 98 101 98 97 97 94 89 83 89 99 96 90 96 101 100 96 95 93 85 77 75 79 87 94 93 89 85 83 88 94 96 96 95 94 94 95 97
61 60 56 63 71 70 77 83 71 65 74 82 82 72 61 51 43 62 86 69 43 49 58 57 61 62 58 62 68 73 75 72 67 65 65 67 66 65 69 73 74 80 85 87 91 95 98 97 96 100 101 100 101 99 96 93 90 93 100 100 99 100 100 98 95 94 95 89 80 80 88 95 97 93 89 85 85 91 97 99 100 100 97 97 98 98
71 69 64 68 68 62 73 81 66 57 69 77 74 67 56 47 51 71 80 63 52 60 61 55 56 56 58 66 74 79 78 70 69 72 73 71 69 68 72 76 79 84 91 98 97 93 93 96 98 101 101 101 99 92 90 97 100 100 101 100 100 101 100 97 92 91 93 91 86 88 94 98 98 93 88 85 87 94 98 100 102 102 98 98 99 98
85 79 65 67 72 63 64 73 66 56 62 70 69 60 53 63 76 75 67 62 62 60 55 55 60 63 67 71 71 74 77 76 75 76 75 73 72 72 77 85 90 91 90 88 85 88 95 99 100 102 101 99 100 97 96 100 101 101 101 100 101 101 97 91 89 92 93 91 89 93 97 97 96 91 87 86 88 95 98 99 102 102 99 99 99 98
90 84 70 70 77 71 66 73 76 70 62 62 67 62 57 69 77 67 60 62 60 55 56 62 68 74 77 74 71 73 79 82 83 82 80 78 77 82 88 89 86 80 75 78 86 95 99 97 97 101 102 101 102 97 93 96 99 101 101 100 98 95 91 91 95 96 93 90 91 95 96 96 93 89 86 85 89 95 98 98 101 102 99 98 99 98
80 78 78 79 79 83 87 82 73 67 58 53 59 62 60 63 63 57 57 59 58 60 67 71 75 76 73 72 78 84 86 87 86 84 84 85 88 95 96 87 76 73 79 91 99 98 93 94 99 101 102 100 94 86 88 96 99 97 96 94 94 94 95 98 99 95 92 94 96 97 96 94 90 87 85 85 91 98 99 98 101 101 98 98 99 99
74 73 83 87 76 74 80 74 61 56 52 50 54 57 57 58 55 52 57 62 66 69 73 77 80 77 73 77 84 87 88 89 88 89 91 94 95 97 97 91 82 82 91 100 101 94 88 90 96 99 98 92 85 84 93 99 96 93 93 92 93 97 98 96 94 95 97 100 99 96 93 89 86 85 84 87 94 101 100 98 100 101 99 97 98 99
66 66 75 77 67 60 60 55 50 50 50 51 56 57 56 55 51 52 63 70 72 73 76 81 82 79 80 84 86 88 91 90 92 93 93 94 95 96 99 95 84 84 95 101 99 91 83 85 94 98 93 86 86 92 99 97 93 94 96 96 97 98 96 94 96 101 103 101 95 90 86 84 83 83 84 87 95 102 103 99 99 101 100 98 97 97
61 66 71 67 66 73 70 51 44 50 55 57 59 56 54 52 52 59 71 75 73 75 79 83 83 83 84 83 85 92 95 91 91 92 90 93 96 97 102 97 84 85 98 102 99 96 94 96 101 99 93 91 94 99 99 95 94 96 97 99 100 98 97 100 103 104 100 93 85 80 78 80 82 84 86 89 95 102 104 102 101 101 101 100 99 98
68 69 74 71 70 74 68 50 47 58 62 60 59 57 54 54 59 69 75 74 73 76 78 79 81 83 82 80 86 97 96 88 88 89 89 93 97 100 101 93 84 92 102 100 98 102 102 101 100 98 99 100 99 100 99 97 96 98 99 100 100 99 101 103 102 98 91 82 75 72 72 76 81 86 88 90 94 100 103 104 104 103 101 101 99 97
72 70 72 74 73 69 60 53 60 71 69 62 60 59 57 59 69 77 77 74 74 77 79 82 83 86 86 84 88 96 94 87 87 89 90 95 100 102 97 89 90 100 101 94 96 101 101 101 102 102 102 101 99 100 101 99 99 101 100 98 99 101 102 99 93 88 81 73 69 68 69 72 79 85 88 89 92 98 101 102 104 103 102 102 101 98
74 77 76 78 85 83 71 64 73 83 78 66 60 60 63 69 75 78 78 79 79 81 83 86 87 91 92 88 88 96 98 93 92 94 96 100 102 97 91 93 100 100 91 89 97 102 100 101 103 102 101 100 100 101 100 100 102 102 100 100 101 99 97 93 87 82 76 70 66 66 68 70 75 81 86 88 89 92 95 98 101 103 102 102 101 100
79 81 80 83 89 85 72 67 74 77 71 64 63 67 73 78 80 82 84 85 85 87 88 88 88 91 93 92 94 100 100 97 98 100 101 101 96 90 92 100 99 90 86 92 100 102 101 102 102 101 101 101 101 100 100 101 103 103 101 101 100 97 95 92 87 82 76 70 66 64 65 68 71 75 80 83 85 87 89 91 94 99 102 102 100 98
Wind_Speed
1 4 6 8 8 5 5 8 10 7 5 6 7 8 10 11 11 11 4 4 3 5 9 8 10 16 12 9 9 15 21 19 17 17 18 18 18 19 21 22 23 22 25 30 33 30 23 16 11 8 7 8 12 15 18 22 25 29 33 36 39 42 44 45 45 45 46 47 48 47 49 50 47 46 46 43 42 42 41 37 31 31 33 33 32 29
1 6 8 7 6 5 3 5 6 5 5 6 8 9 10 9 11 10 3 3 3 2 7 4 8 13 7 10 12 16 17 16 17 17 18 18 18 18 20 21 22 22 25 32 37 36 33 26 18 10 6 5 8 10 13 18 22 26 29 33 38 40 42 45 45 45 47 48 47 46 46 46 47 47 47 45 41 41 44 41 37 38 37 35 34 33
4 9 7 2 2 2 2 1 4 6 7 7 6 7 8 6 8 8 2 3 3 3 6 4 8 10 5 12 12 15 15 15 17 17 17 17 18 19 20 21 21 23 25 31 36 39 39 35 29 21 13 9 8 7 7 11 17 23 25 28 35 39 40 42 43 44 47 48 46 45 45 44 46 47 46 45 42 42 47 46 43 42 40 37 36 35
5 5 2 4 2 2 0 1 3 5 5 7 6 6 8 4 4 5 1 3 3 5 8 8 10 7 6 11 11 13 14 15 16 17 18 18 19 19 19 19 21 23 26 29 32 37 41 40 37 32 25 17 11 7 4 5 8 15 22 25 30 35 38 39 41 43 45 47 46 46 47 46 46 47 46 48 47 46 49 49 47 44 42 40 38 37
9 2 3 1 1 3 4 3 4 5 5 7 8 8 10 8 7 8 5 6 5 7 6 7 9 5 8 9 8 8 11 14 15 16 19 19 18 17 18 19 21 22 23 26 29 34 39 42 41 37 32 26 19 13 8 6 6 7 13 21 25 29 34 37 38 41 43 45 46 46 48 48 48 47 47 48 48 49 50 50 50 47 44 42 40 39
9 1 3 2 3 4 6 5 4 5 6 6 7 8 11 12 10 10 8 8 7 4 3 3 6 1 7 9 8 6 7 12 14 16 18 18 18 18 19 20 21 22 22 24 27 31 37 40 42 41 37 33 28 22 16 10 9 10 10 14 18 19 26 33 36 39 40 42 45 47 48 48 48 48 48 49 49 48 48 49 52 51 48 46 43 41
3 3 2 2 2 3 4 5 3 4 6 6 2 2 6 7 8 8 6 4 6 5 1 2 5 3 5 7 8 8 9 11 11 15 16 17 18 18 19 19 20 22 22 24 27 31 36 40 42 43 42 38 33 28 22 16 9 11 13 14 14 12 15 24 30 34 37 41 43 45 47 48 48 49 49 48 49 50 47 47 51 53 51 49 47 44
2 2 2 1 1 2 3 4 2 6 5 4 2 0 2 3 4 5 5 5 5 7 4 6 6 7 6 4 7 8 10 11 11 13 14 15 18 17 18 19 19 21 22 23 27 31 35 39 41 42 41 40 37 33 28 23 17 10 10 13 17 16 12 14 21 27 32 38 42 44 46 47 48 49 49 48 47 49 48 45 48 52 53 52 51 48
3 0 0 1 1 3 2 2 1 7 6 2 2 1 1 1 3 3 4 6 4 5 7 7 8 6 7 4 7 7 6 9 10 10 12 14 16 17 18 19 19 20 20 22 26 31 33 35 38 39 38 38 37 36 34 29 25 18 11 9 14 18 17 13 15 19 23 28 34 40 44 47 49 47 47 46 46 48 48 46 47 50 53 54 54 52
1 2 2 1 3 4 1 1 1 7 5 1 2 1 1 2 1 2 4 4 2 4 9 6 11 6 6 5 6 5 4 7 7 7 9 11 13 14 15 17 18 18 19 21 25 31 34 34 36 37 37 37 36 35 34 32 30 25 19 13 8 12 17 17 16 16 18 22 26 29 33 38 44 46 45 45 45 46 47 47 48 48 50 53 55 56
3 1 1 1 3 2 1 1 1 3 2 1 1 3 3 4 2 1 3 2 2 6 7 4 9 7 5 2 4 3 4 3 4 5 7 9 12 13 14 16 18 20 21 21 23 29 35 36 36 37 37 37 36 35 34 33 33 30 26 22 16 10 11 16 18 18 18 19 22 25 26 27 30 36 41 44 46 47 48 49 49 48 49 51 54 55
3 2 1 1 2 1 1 1 2 1 1 1 3 5 5 3 3 2 2 3 4 6 1 2 4 7 6 1 5 6 5 4 3 5 6 9 12 13 15 17 19 21 22 22 22 27 35 38 38 39 38 38 37 35 35 35 33 32 30 27 23 19 13 11 15 19 21 20 20 22 26 28 27 27 30 34 38 42 46 49 50 49 50 51 51 51
1 1 0 1 1 3 3 3 2 3 2 3 4 3 5 5 3 4 3 3 5 4 2 4 2 4 4 2 7 7 6 5 5 6 7 10 12 13 15 17 19 20 21 22 20 22 30 36 36 36 35 36 37 37 37 36 35 34 32 29 26 23 20 16 12 13 17 20 22 22 23 26 29 30 30 30 29 30 34 39 43 47 49 51 51 52
3 1 2 2 2 5 5 4 4 2 2 4 3 2 4 5 5 7 7 5 6 4 3 5 2 4 3 5 8 7 7 6 6 7 8 10 12 14 16 16 18 19 20 20 19 17 23 29 30 30 30 31 36 39 39 38 37 37 35 33 30 26 23 19 17 14 12 14 18 20 21 22 25 28 31 33 33 31 30 30 33 38 42 47 49 50
5 3 2 2 1 4 6 5 5 3 2 3 1 2 4 5 6 7 7 7 9 8 2 4 2 4 2 5 8 8 8 7 7 7 7 9 11 12 15 16 17 18 19 20 20 17 18 22 24 27 30 32 36 38 39 40 40 40 40 38 35 31 27 23 20 17 15 12 12 15 18 20 22 25 27 30 33 34 35 34 32 33 35 39 43 46
6 5 2 2 1 4 5 2 1 3 4 1 1 2 3 3 4 6 8 8 7 9 7 4 2 1 3 5 8 8 7 7 7 7 8 10 11 12 14 16 16 17 19 20 20 19 18 19 21 23 25 29 33 35 35 37 40 41 42 42 39 35 31 28 25 22 19 15 13 12 13 16 19 21 24 27 29 30 33 35 37 37 36 35 37 40
6 6 1 1 3 5 3 0 2 4 3 1 2 3 1 2 3 6 9 5 3 7 8 6 5 3 5 4 7 6 4 6 7 8 10 11 12 13 14 15 16 18 18 18 18 18 19 20 22 23 24 26 30 33 35 35 36 38 39 41 41 40 36 31 29 27 24 21 17 14 12 13 14 17 20 23 26 28 29 31 34 37 38 38 36 35
4 10 7 3 3 2 1 3 6 7 4 2 3 2 2 1 2 3 5 4 5 8 6 6 8 5 3 3 6 6 2 6 7 9 11 13 14 14 14 15 17 19 19 18 17 16 17 19 21 24 24 24 25 27 30 32 35 37 37 39 40 41 40 37 33 30 29 26 23 19 16 14 13 14 15 18 22 25 27 29 30 32 35 38 38 36
1 9 8 1 1 1 1 3 6 7 6 4 3 3 2 4 5 3 2 4 7 9 7 6 7 5 3 1 6 6 3 7 7 9 11 13 15 14 14 15 16 17 18 19 18 16 16 17 20 23 26 28 28 28 26 27 31 36 38 39 38 38 39 39 37 34 32 30 27 24 21 18 16 14 14 15 17 20 23 26 28 30 32 34 37 38
1 6 7 1 4 0 2 3 4 3 3 2 3 3 1 2 6 5 2 4 6 9 9 7 6 2 2 4 7 7 6 7 8 10 10 12 14 14 13 14 16 16 16 18 19 16 14 15 18 21 24 27 30 32 30 27 30 34 37 38 37 36 38 39 39 38 35 33 31 27 25 22 19 17 16 15 15 17 18 21 23 27 30 32 34 36
3 5 7 5 1 3 4 2 3 7 4 4 5 4 3 3 4 4 3 2 4 8 9 10 10 2 5 5 7 9 8 8 8 8 8 9 12 12 13 15 16 16 17 20 21 18 15 16 18 20 23 24 26 29 30 29 30 33 35 35 33 34 37 40 40 40 38 36 34 30 27 25 23 21 19 18 17 17 17 18 20 22 25 29 32 34
3 4 8 9 6 8 8 2 2 8 8 7 7 5 3 3 2 5 6 2 1 6 6 9 12 2 5 4 6 8 7 7 7 7 7 10 12 13 15 16 15 16 18 21 23 20 16 17 19 22 26 27 27 29 29 29 30 32 34 32 29 30 36 39 40 40 40 38 36 33 30 27 25 23 22 20 19 18 18 18 19 20 22 25 28 31
2 3 7 10 9 13 12 3 2 5 4 2 3 1 1 2 2 6 9 4 2 4 1 5 10 2 4 3 7 8 6 5 6 8 10 12 13 15 18 18 15 16 18 20 23 19 15 16 19 22 27 29 29 30 30 30 31 32 33 32 29 29 33 38 40 40 40 39 38 36 33 29 26 24 23 22 21 20 20 20 20 20 21 23 25 27
0 3 5 8 9 11 9 1 4 2 3 3 1 2 2 4 2 4 6 4 4 8 6 8 9 2 3 3 6 7 7 8 10 12 14 16 16 18 21 21 19 19 19 21 23 19 15 17 19 21 26 27 27 28 29 30 32 33 33 33 31 31 32 36 39 40 40 39 38 37 36 33 29 26 24 23 23 23 22 22 22 22 22 22 23 25
2 3 3 6 9 9 5 0 0 2 2 1 2 2 2 2 2 2 3 2 6 10 9 12 11 1 4 4 4 8 10 11 14 15 17 19 20 22 23 23 22 22 21 22 24 21 17 18 19 21 25 27 26 26 27 29 31 32 33 33 33 34 35 36 38 39 41 41 39 38 36 35 33 30 27 24 24 24 24 24 24 24 24 23 23 24
4 4 3 5 8 9 8 8 7 4 3 4 3 1 2 2 1 3 5 6 7 6 5 8 7 2 3 3 4 10 12 13 17 20 22 23 24 25 25 25 24 23 22 23 24 23 19 18 18 20 25 27 26 26 27 29 30 32 32 33 34 34 36 38 38 39 41 41 41 40 38 35 34 32 30 27 26 25 24 24 25 25 25 25 25 25
2 3 6 9 10 11 13 14 11 9 9 11 8 4 2 3 2 3 5 7 6 6 6 4 5 7 6 5 8 12 14 15 18 23 27 28 27 27 26 26 26 24 23 23 23 23 21 18 18 21 25 27 27 26 27 28 30 33 34 34 34 34 36 38 39 40 41 41 41 40 39 37 34 32 31 30 28 27 25 24 25 26 26 26 27 27
3 5 6 9 14 17 17 16 14 13 13 14 11 7 4 4 3 3 5 6 6 5 6 5 9 9 9 9 10 13 15 15 18 23 26 26 26 27 26 27 28 26 24 24 24 24 21 19 22 27 28 29 28 28 29 29 30 33 34 35 36 36 37 39 39 39 40 41 41 39 39 40 36 32 31 30 29 28 27 25 25 25 27 27 28 28
4 7 3 3 11 17 14 12 13 14 12 7 7 7 5 3 2 1 3 6 7 5 8 8 11 11 9 8 10 14 16 16 18 22 25 25 26 27 28 28 28 26 26 26 25 23 21 24 29 31 30 31 30 29 30 31 31 32 33 36 37 38 38 39 39 39 39 41 42 40 40 41 37 32 29 29 29 28 27 27 26 25 26 27 28 29
2 5 1 1 9 14 11 10 9 8 8 5 6 7 6 3 4 4 4 7 7 7 8 9 13 12 7 8 12 17 20 20 22 24 25 26 27 27 29 30 29 27 26 24 21 21 24 28 32 31 31 32 32 31 31 31 32 31 32 34 34 36 39 38 38 39 39 40 41 41 41 41 37 32 29 27 28 28 28 28 27 27 27 27 28 29
2 2 3 2 7 11 8 6 6 6 7 3 6 9 8 6 6 5 5 8 9 9 10 12 14 10 6 13 19 21 23 24 25 26 26 25 26 27 28 29 28 27 24 21 22 24 27 29 30 30 32 32 32 32 33 32 32 31 31 30 28 30 37 38 38 39 39 39 41 41 42 41 37 33 30 28 28 28 28 28 28 27 27 27 28 28
3 3 2 3 7 10 7 6 9 12 7 4 9 12 12 9 7 6 7 9 9 11 13 13 10 6 9 18 22 23 26 26 26 28 28 27 27 28 28 28 27 23 20 21 25 27 27 29 30 30 32 32 32 33 33 33 33 32 32 31 26 26 35 38 37 38 38 39 41 41 41 41 37 33 31 29 28 28 28 28 28 28 27 26 26 27
2 4 4 4 5 9 11 10 12 14 8 2 8 13 13 12 11 10 10 13 14 12 10 8 7 8 14 18 20 22 25 26 26 28 30 31 31 29 28 26 21 18 20 24 27 27 27 28 29 30 31 32 33 33 33 33 33 31 32 31 24 25 35 38 37 38 38 39 40 40 41 40 36 34 33 31 29 27 27 27 28 28 27 26 25 25
2 3 5 3 3 8 13 11 11 12 7 2 7 12 14 13 12 12 14 17 16 9 4 7 10 13 18 19 19 21 24 27 30 31 32 33 32 31 30 26 20 19 25 27 27 27 27 28 29 30 32 32 33 34 34 33 31 29 31 28 22 27 36 37 37 38 38 39 40 40 40 39 36 34 33 32 30 28 27 26 27 27 27 26 25 25
4 4 3 1 2 6 7 6 9 9 3 4 5 11 15 11 10 14 16 16 14 7 5 12 16 18 23 25 26 28 29 31 33 32 31 32 31 30 30 27 24 25 29 30 30 29 27 27 29 30 31 32 31 33 35 35 32 30 29 27 25 31 36 36 37 38 37 38 39 39 40 39 36 34 33 32 31 29 28 26 26 26 26 25 25 25
4 4 3 2 2 5 5 6 8 4 5 6 6 12 16 13 12 15 15 15 13 7 6 14 20 23 28 32 32 33 34 35 33 30 29 29 28 28 28 30 32 34 36 36 35 32 29 29 29 29 29 28 28 33 37 36 35 32 30 30 31 34 36 36 37 37 36 37 37 38 40 38 35 34 33 32 31 30 29 27 26 25 24 24 25 25
4 3 3 3 2 3 5 7 8 2 5 8 8 8 13 13 11 12 12 11 7 5 11 18 20 25 31 33 35 36 37 34 26 24 27 28 29 30 32 36 39 40 40 39 36 34 30 28 29 28 27 25 27 34 37 34 33 32 32 33 34 35 36 35 35 35 35 35 36 38 39 37 34 33 32 31 31 30 29 28 26 25 24 24 25 25
1 3 5 5 3 3 5 8 9 5 2 5 6 8 15 17 16 15 14 8 1 11 24 25 21 26 31 32 36 38 34 23 14 17 27 32 34 37 38 39 39 39 40 38 36 32 27 25 28 27 25 26 29 32 32 32 33 35 35 37 38 37 34 33 32 32 32 34 36 38 37 34 32 32 31 30 30 29 28 27 26 25 23 23 24 25
6 4 4 4 3 5 6 7 7 6 2 2 6 12 19 24 24 19 12 5 5 21 33 30 25 31 33 34 37 33 22 14 10 17 31 37 38 39 39 39 39 38 38 36 32 27 24 26 29 27 25 28 28 27 30 35 39 39 39 39 38 34 31 30 30 30 31 33 36 36 34 32 31 30 30 29 28 27 26 26 25 24 23 22 22 23
8 5 5 6 5 6 6 6 6 3 1 2 9 15 21 27 25 16 8 7 17 30 36 33 30 32 33 34 33 22 14 15 16 23 35 40 37 36 36 36 38 37 35 31 26 25 28 29 30 29 28 27 26 29 34 37 38 37 36 35 33 31 29 30 30 30 31 33 35 34 32 31 30 29 28 27 27 26 25 24 24 22 21 20 20 20
6 3 3 5 6 8 7 5 7 3 3 3 12 18 24 24 16 8 9 17 27 34 35 33 33 34 33 33 28 19 19 27 29 33 38 37 35 36 35 34 35 33 28 27 28 32 34 31 29 30 28 26 30 36 38 36 33 33 33 32 30 28 29 31 32 32 32 33 34 33 31 29 28 28 27 26 25 24 23 22 22 21 19 17 17 16
5 4 3 4 5 7 6 6 9 5 1 10 19 21 22 17 8 9 18 27 32 34 34 34 34 33 34 34 31 28 30 35 36 35 34 33 34 36 34 32 32 31 31 35 38 36 31 28 27 28 29 30 34 36 35 34 34 33 31 29 28 30 34 36 35 33 32 32 33 31 29 28 27 26 26 25 24 23 22 21 20 19 17 15 14 14
3 4 4 5 4 5 6 7 7 4 7 18 21 15 14 13 14 21 29 31 33 34 34 34 32 30 33 35 34 34 35 36 34 32 32 34 34 32 32 33 36 39 40 39 34 29 28 30 31 30 31 33 35 35 36 35 33 29 27 28 31 35 36 33 30 30 31 32 32 29 28 28 27 26 25 24 23 22 20 19 19 18 15 13 12 11
2 3 4 4 2 3 5 5 6 10 17 23 20 14 17 21 25 30 32 31 33 34 34 33 31 32 34 33 33 35 35 33 31 30 32 35 32 30 31 36 40 43 38 30 26 30 35 37 34 33 33 35 38 40 38 31 27 27 29 31 31 30 28 26 27 30 31 31 29 28 27 27 26 25 24 22 21 20 19 18 18 16 14 11 10 9
2 4 5 5 3 6 8 8 12 19 24 26 25 24 27 29 29 31 32 32 34 34 32 31 31 33 34 33 33 34 32 29 30 32 33 33 31 29 29 31 36 38 33 30 33 38 40 39 36 36 38 39 41 40 33 26 26 28 28 26 24 23 24 26 28 29 29 29 29 28 26 25 24 23 22 20 19 19 18 17 16 16 14 11 9 8
3 7 8 6 8 13 12 11 17 23 25 29 30 29 29 30 31 32 33 33 33 33 33 33 33 33 34 33 33 31 29 30 32 33 33 33 33 30 27 28 35 38 34 35 38 39 40 40 38 39 41 42 39 34 29 27 26 25 24 23 23 23 26 27 27 28 29 28 27 25 24 23 22 21 19 18 18 17 17 16 16 15 14 12 10 9
6 11 10 7 10 13 10 12 20 25 28 31 31 28 29 31 32 33 33 32 32 33 34 34 35 35 35 34 33 30 29 31 33 34 36 35 32 29 25 29 39 40 34 33 36 37 36 36 36 39 42 40 34 29 27 27 25 22 22 22 23 25 26 26 27 28 28 26 24 23 21 21 20 19 18 18 17 16 16 15 15 15 14 13 12 11
9 13 11 8 10 12 13 19 29 32 31 29 26 27 31 34 34 33 31 29 29 32 33 33 35 36 35 36 34 29 30 33 34 35 37 34 30 28 29 37 43 38 31 33 36 35 32 34 38 39 36 32 30 28 27 25 23 22 21 22 25 26 26 26 26 26 24 23 22 21 20 19 18 18 17 17 17 16 16 15 14 14 14 14 13 13
10 11 10 11 13 12 13 22 30 29 26 26 28 31 34 35 34 32 30 29 31 32 33 34 35 34 35 38 34 27 29 34 33 34 36 34 32 34 39 42 38 31 31 39 39 34 33 35 36 33 29 28 28 26 24 24 23 22 23 24 25 25 25 25 25 23 23 22 21 20 19 18 17 17 17 17 16 16 15 15 14 14 14 13 14 13
10 9 9 11 10 8 13 23 26 19 17 25 33 37 36 35 34 32 32 33 34 34 34 37 38 37 37 38 33 25 27 31 33 36 38 36 36 41 42 37 30 31 39 42 36 32 35 36 32 27 26 27 26 24 23 25 25 24 24 24 23 23 23 24 24 23 22 21 20 19 19 17 17 16 16 16 16 16 15 14 14 14 14 14 13 13
9 8 11 11 10 13 21 28 27 23 23 30 36 36 34 33 32 32 34 35 35 35 36 38 40 41 39 36 29 24 27 33 36 37 36 36 39 40 34 28 31 40 43 37 30 32 36 33 28 26 26 25 24 24 25 26 25 25 24 23 22 23 23 23 23 23 22 21 20 19 18 17 17 16 15 15 16 16 16 15 13 13 13 14 14 13
Wind_Direction
210 252 241 245 252 255 236 229 247 286 311 287 282 272 270 275 275 279 289 110 118 272 267 259 261 277 305 5 28 52 62 55 44 43 39 34 31 27 24 21 20 19 17 23 30 28 21 3 327 293 279 291 289 270 253 243 238 235 239 247 244 239 240 239 238 237 234 233 232 233 234 232 233 235 233 233 236 237 233 228 228 232 236 236 233 230
185 250 249 252 278 313 305 254 261 277 274 264 267 273 273 268 271 286 336 109 139 242 267 270 278 286 335 46 57 62 60 51 45 44 39 35 34 31 26 23 20 20 20 26 33 33 32 27 16 353 326 328 317 295 273 255 244 240 239 246 247 242 240 239 240 239 236 237 238 238 241 241 239 238 238 238 239 243 239 232 230 231 230 232 234 230
231 249 263 346 23 13 22 267 248 247 253 255 255 268 272 274 282 291 21 107 156 225 271 296 296 295 51 76 69 66 67 64 54 49 46 39 38 33 28 26 21 20 21 24 30 34 36 34 31 24 10 355 338 325 304 280 260 249 244 246 246 243 243 242 241 239 237 240 243 244 245 246 246 244 243 243 242 245 243 234 231 232 229 230 234 233
263 252 296 37 96 175 278 151 205 241 248 241 240 260 265 280 304 278 42 76 181 227 277 298 291 277 113 98 82 77 77 72 60 55 52 43 41 36 30 28 24 23 22 23 26 32 37 38 36 34 28 17 357 339 326 309 288 262 253 253 251 245 243 244 243 240 240 243 245 246 244 241 241 242 243 243 240 240 241 236 231 231 232 230 232 235
265 251 101 63 169 230 261 215 208 246 257 239 231 247 265 277 282 266 297 334 267 229 248 279 281 248 156 135 109 98 85 70 58 53 48 42 40 34 31 30 27 27 24 24 25 28 35 39 39 38 35 30 22 8 347 321 306 282 259 254 256 254 245 243 244 244 244 245 244 242 239 236 236 238 238 239 239 239 241 238 233 232 233 232 231 233
271 356 93 261 239 232 252 249 232 243 274 266 231 245 270 281 283 275 297 322 293 249 177 251 292 268 156 146 124 116 87 64 51 48 45 38 33 29 28 25 23 25 24 25 27 29 35 39 41 42 40 36 33 27 15 345 297 280 271 253 255 260 249 243 244 245 244 242 241 240 240 239 239 240 239 239 240 243 247 246 238 233 233 232 230 232
282 50 66 276 247 222 243 263 234 201 269 289 246 261 277 278 279 275 282 286 286 295 175 207 293 283 186 156 137 121 87 67 52 46 41 33 30 27 25 22 21 23 22 23 26 30 35 39 41 42 42 41 38 34 29 17 339 286 277 267 264 269 254 244 243 245 246 244 242 241 242 245 246 247 248 248 248 249 252 253 243 234 233 233 231 231
130 77 84 114 221 231 249 277 199 182 252 294 102 193 262 260 266 256 254 243 270 307 275 208 225 256 248 181 147 139 97 69 53 42 36 31 28 25 23 21 23 25 23 23 24 27 32 36 39 40 42 43 42 39 35 30 22 350 299 278 276 284 277 250 239 239 243 246 246 245 244 246 248 250 252 254 257 256 254 253 246 238 236 236 233 231
106 25 11 124 266 273 273 336 161 197 241 323 96 243 270 295 278 245 247 255 267 309 284 209 183 237 254 171 145 157 117 64 51 43 34 30 25 24 24 19 20 25 25 25 26 27 29 32 34 37 39 41 42 41 40 37 32 24 3 311 279 282 290 282 257 242 239 242 244 246 246 246 248 251 252 254 256 257 255 254 252 247 241 238 236 234
30 63 40 4 294 293 290 41 227 219 239 12 100 207 193 177 254 239 245 267 246 256 273 221 176 225 265 177 145 146 109 54 45 47 37 33 28 24 22 19 19 21 23 25 27 27 28 29 29 30 32 35 38 39 40 40 37 34 27 11 325 288 289 295 291 272 255 246 242 243 244 246 248 249 252 255 256 256 255 253 253 253 248 242 238 236
271 110 84 276 278 310 65 81 263 245 270 30 224 266 267 216 193 228 230 238 239 241 264 224 190 224 268 160 100 82 91 51 32 46 36 29 30 26 23 20 19 19 20 20 20 22 24 25 25 25 26 26 29 33 35 37 37 36 34 28 18 349 304 292 296 296 287 270 255 249 247 247 247 247 248 252 255 256 254 253 253 255 255 249 244 241
245 168 165 236 230 152 145 218 175 182 274 258 260 289 295 255 195 199 185 164 235 251 270 93 190 225 247 218 82 90 99 76 34 31 25 21 25 25 24 22 22 21 18 16 14 15 18 19 20 20 20 19 20 23 27 29 31 31 31 30 26 21 3 326 301 295 297 295 283 268 257 253 250 248 247 248 251 252 251 252 253 254 255 253 250 247
267 147 53 302 212 191 227 269 190 163 181 231 255 276 282 289 266 245 250 226 249 266 92 100 166 223 238 79 94 108 96 76 58 39 25 21 21 23 24 24 23 22 18 17 14 12 14 15 16 16 15 15 14 16 19 20 21 23 23 24 24 24 20 10 349 314 298 296 295 290 278 267 258 253 251 249 249 248 248 250 250 250 250 250 251 250
346 103 151 196 193 192 218 298 301 237 181 214 242 261 267 289 285 272 279 273 268 276 111 104 97 246 217 95 97 108 95 81 69 52 37 29 26 26 27 25 22 20 18 17 15 12 14 14 13 13 11 10 10 11 12 12 13 14 14 14 14 15 17 16 12 360 335 309 297 293 289 283 273 265 259 256 254 251 250 250 251 251 250 251 253 253
318 309 181 191 134 166 206 271 307 299 251 221 247 284 267 275 271 271 281 278 283 289 257 124 118 266 232 118 112 110 103 89 64 53 44 35 33 31 29 26 22 19 15 14 14 12 12 12 12 12 9 8 7 6 6 5 5 5 5 6 5 4 6 7 8 7 2 348 325 306 295 289 282 276 270 265 263 260 257 255 255 255 254 255 256 256
295 293 143 136 126 172 215 237 164 280 271 194 90 260 251 275 267 267 278 277 286 294 274 222 191 27 66 129 132 119 107 88 61 45 39 30 28 28 26 24 20 15 11 10 10 8 6 7 9 10 9 8 5 4 2 1 0 360 358 358 358 357 357 357 358 359 358 355 347 331 313 300 289 282 276 271 268 266 264 261 259 258 258 259 261 261
302 292 176 156 228 202 223 237 184 274 306 121 208 253 295 342 277 269 276 273 260 273 262 243 243 111 110 168 160 142 102 73 52 37 35 25 22 22 19 20 16 11 8 5 5 6 4 5 5 5 4 3 1 360 358 356 356 356 355 353 352 352 351 351 351 352 350 348 345 340 330 316 302 290 282 277 272 269 267 265 263 262 261 261 262 264
315 296 286 258 251 202 178 289 258 249 262 245 242 310 4 270 238 255 272 271 255 261 252 240 254 232 183 191 161 161 101 56 45 35 32 21 19 17 12 11 7 5 4 1 0 0 1 3 3 3 0 357 356 354 353 351 350 350 351 351 349 348 348 346 346 347 347 345 341 338 334 327 318 306 293 284 278 273 269 266 265 264 263 262 263 264
323 295 297 238 161 119 166 267 268 230 217 250 299 332 326 266 259 240 246 274 267 268 270 256 259 256 247 151 136 144 63 45 36 29 26 17 15 11 4 0 355 356 358 358 357 354 355 358 358 359 357 355 352 349 348 346 345 346 347 347 347 346 345 344 342 342 343 343 341 337 334 329 322 314 306 296 288 280 274 269 266 264 263 262 262 262
306 286 297 157 129 146 231 235 285 269 201 227 282 274 239 262 271 259 255 283 271 272 280 278 277 299 38 72 108 103 60 48 35 24 18 10 7 2 358 351 345 347 352 354 352 346 346 351 353 355 354 352 350 347 345 343 342 344 345 345 345 344 343 342 341 341 341 340 340 337 333 328 322 315 310 305 299 291 283 277 271 267 264 261 260 259
271 256 275 274 207 285 281 232 300 313 291 260 264 259 241 232 257 272 268 243 260 272 278 280 277 282 74 66 89 87 64 53 39 21 4 356 355 352 350 345 341 345 347 350 349 341 339 344 348 352 351 349 347 344 343 341 341 342 343 344 344 342 342 342 341 342 341 340 338 336 333 328 323 317 311 307 302 298 292 286 279 273 268 263 260 257
267 250 269 283 285 283 290 347 329 292 285 278 274 272 278 270 265 278 271 202 224 270 273 280 280 284 93 80 82 78 66 57 33 7 353 347 347 347 346 343 341 343 344 346 346 338 332 338 344 347 349 347 344 342 340 339 339 341 342 344 342 341 341 342 342 342 341 340 338 336 332 329 325 319 314 308 302 297 293 289 283 277 272 268 264 259
299 273 267 275 276 277 285 339 54 268 261 259 266 288 3 304 273 277 283 301 290 266 260 277 275 262 108 101 82 73 61 45 9 353 351 348 349 349 344 341 338 336 338 342 343 336 326 332 339 342 345 345 342 340 339 337 339 340 342 343 342 339 340 341 341 341 339 339 338 335 332 328 324 320 315 312 306 299 293 287 283 278 274 271 268 264
285 251 263 276 279 280 276 127 105 186 175 156 191 60 356 300 303 281 288 321 290 271 274 273 269 248 119 112 84 63 34 14 2 360 356 350 349 346 343 341 336 333 333 336 340 335 322 324 332 337 341 342 338 337 335 334 335 337 340 342 341 339 338 339 340 340 339 337 335 334 332 328 324 319 315 313 309 304 297 290 285 280 277 273 270 268
314 257 290 302 299 302 303 339 222 233 206 267 313 51 28 343 7 292 281 289 264 261 262 268 271 259 126 138 70 29 12 4 2 2 357 351 347 343 341 339 333 329 328 330 334 331 320 319 325 332 337 337 333 331 330 330 330 332 335 336 338 338 337 338 338 339 339 338 334 332 331 327 324 320 316 312 308 305 301 296 290 284 280 276 272 270
287 273 283 293 296 305 305 300 308 320 317 307 300 90 55 24 337 287 283 269 264 266 260 266 281 332 113 126 28 6 1 359 356 354 352 349 344 340 337 334 330 326 323 324 328 325 317 314 319 326 332 332 327 324 325 325 326 327 329 330 332 334 335 336 335 335 338 339 337 334 331 327 322 318 315 312 308 306 303 299 296 290 284 279 275 271
278 268 248 257 268 278 279 286 313 338 316 301 309 335 21 14 348 297 277 276 292 298 276 289 345 340 338 9 9 358 357 355 350 349 347 343 337 334 331 328 325 321 317 319 321 320 315 311 316 323 326 326 322 319 320 320 322 325 325 326 328 329 331 333 333 333 335 337 337 335 333 330 324 316 312 310 307 306 304 301 298 293 289 283 277 272
278 270 248 247 257 268 278 293 315 323 306 304 324 345 5 353 328 264 269 309 346 310 277 345 6 334 331 359 0 353 355 351 345 342 337 331 328 327 325 323 320 317 315 317 318 318 315 314 318 321 322 323 320 318 318 317 318 321 321 322 323 324 327 329 329 330 331 333 335 334 333 331 327 317 310 307 306 305 304 302 299 294 289 285 280 275
275 273 261 231 264 276 288 303 309 306 305 327 4 359 353 348 338 316 314 350 12 317 287 330 340 321 330 355 351 349 350 341 332 330 326 323 324 324 323 321 318 315 315 316 317 317 317 318 320 319 320 321 319 317 317 315 316 317 317 318 320 321 324 326 327 327 328 329 331 332 331 330 327 319 311 307 306 305 304 302 299 295 290 286 283 279
236 274 316 171 280 292 305 316 317 312 315 352 37 15 8 27 42 35 355 346 348 312 297 319 318 310 338 7 349 341 338 330 324 322 321 323 324 324 323 319 315 314 315 316 318 318 317 318 319 320 320 320 318 317 316 314 314 314 314 314 315 317 321 323 323 324 325 326 328 329 329 329 325 320 314 309 308 306 304 302 300 296 292 288 285 281
238 289 44 61 290 299 321 335 334 317 307 346 39 27 21 18 20 29 356 338 337 320 312 315 308 302 351 359 340 329 327 326 322 320 319 320 321 321 319 315 313 314 315 317 319 317 317 319 319 320 322 320 318 316 315 314 313 312 312 310 306 310 317 318 319 320 321 323 325 326 328 328 325 321 317 312 308 306 304 303 301 298 295 291 287 284
294 291 14 19 307 306 327 340 321 309 301 78 49 18 7 357 347 348 345 339 333 320 313 312 311 319 344 338 327 323 324 324 322 321 319 317 318 316 313 312 313 313 312 314 316 316 317 319 319 320 322 321 319 316 314 313 311 309 310 309 302 303 312 314 315 317 318 321 323 325 328 327 324 320 317 313 309 305 304 304 302 300 298 295 290 286
332 317 326 347 314 302 312 317 312 306 293 91 45 15 1 345 328 325 335 334 325 315 310 317 327 330 326 324 322 323 324 322 321 320 318 314 312 310 309 310 309 305 306 309 312 314 315 316 317 318 319 319 319 317 314 312 309 306 307 308 301 301 309 312 313 314 315 318 322 324 326 326 322 319 318 315 311 307 304 303 302 301 300 298 295 289
17 331 320 335 288 292 309 315 311 309 307 59 58 27 3 342 327 326 325 322 318 311 321 338 334 328 326 326 324 321 319 317 316 315 314 314 310 307 308 307 300 300 307 309 309 310 311 312 314 316 317 318 317 316 314 311 306 302 304 304 298 302 309 310 310 311 312 316 319 321 324 324 320 318 317 316 314 310 306 304 302 301 301 300 298 293
328 315 307 314 252 287 314 328 319 319 353 112 74 23 5 349 339 331 319 316 320 313 328 340 335 330 329 325 321 319 315 313 312 310 311 312 310 308 307 305 304 306 309 308 306 305 306 309 312 315 316 317 316 316 315 312 308 304 302 301 300 304 309 309 308 309 310 314 317 319 322 322 318 316 316 316 314 312 309 307 304 302 303 302 299 295
277 285 292 266 254 296 318 331 323 328 84 70 16 9 9 358 345 337 322 319 325 317 322 335 331 328 327 323 321 320 316 314 312 308 309 313 315 312 308 307 309 307 306 306 305 303 304 308 312 314 314 314 315 316 315 313 310 306 302 302 304 308 311 309 307 307 310 313 315 317 320 320 317 315 315 315 314 313 311 309 307 306 306 303 299 294
249 273 314 302 291 314 310 313 311 262 97 37 0 357 3 348 328 324 313 303 311 331 335 334 328 324 324 321 319 319 316 314 311 306 310 316 319 316 311 310 309 304 303 305 303 299 301 307 311 313 313 313 314 316 316 313 311 307 303 304 310 313 311 306 303 306 310 313 314 316 318 318 316 315 314 314 313 312 311 311 310 310 309 303 297 293
320 320 324 318 333 351 320 315 318 299 320 2 332 330 348 340 321 315 304 277 275 351 336 330 324 321 322 321 320 321 318 313 305 307 315 319 320 318 314 311 309 305 302 302 299 298 301 309 313 312 312 312 312 314 316 314 312 310 306 308 313 312 306 300 301 307 312 312 313 314 316 316 314 314 314 313 312 311 311 312 312 312 309 301 293 289
25 9 338 330 344 356 338 321 320 317 332 358 319 327 344 341 328 318 296 264 4 344 330 325 321 320 322 322 321 321 317 310 303 312 319 320 319 318 315 312 311 310 305 300 299 302 310 315 314 311 310 312 312 313 315 314 312 309 306 307 308 304 297 299 307 312 311 310 311 313 315 314 313 313 312 311 311 310 311 312 313 311 305 297 288 284
18 12 10 9 1 353 345 326 317 312 206 305 322 336 346 340 329 316 290 308 335 328 321 319 318 316 317 317 317 317 312 309 308 313 318 319 317 317 316 313 314 314 310 307 308 314 317 316 312 309 310 312 312 312 314 314 312 308 306 303 300 296 299 308 314 313 309 308 311 313 314 314 313 311 310 310 309 309 310 312 312 307 299 292 284 280
6 358 16 14 355 349 346 327 317 295 191 314 333 341 343 337 328 320 310 314 319 317 316 318 317 316 317 316 314 312 308 309 311 313 316 318 318 319 319 318 321 323 321 319 321 320 318 314 310 309 311 311 311 313 315 315 313 310 307 300 295 299 309 314 315 311 308 308 311 314 314 313 311 310 309 309 308 307 308 311 309 302 295 289 283 278
359 342 3 359 346 347 341 316 310 296 346 346 336 335 340 341 331 315 309 308 312 316 319 319 318 320 323 322 316 312 310 312 314 313 314 318 321 323 325 329 333 334 329 324 323 321 318 314 313 313 313 313 315 316 316 316 313 310 305 297 297 305 311 311 310 308 306 308 312 314 314 312 310 309 309 308 308 306 306 309 306 299 291 286 283 281
342 327 354 356 345 337 324 318 317 306 337 339 333 332 342 337 314 309 310 311 316 319 320 320 320 323 326 323 318 314 313 313 313 313 317 321 323 326 329 330 330 329 327 324 322 321 320 320 319 317 316 316 317 318 319 319 314 308 301 298 300 306 307 307 307 305 306 310 313 314 314 312 311 309 308 307 307 305 305 307 305 298 291 286 285 286
20 23 345 328 6 356 326 319 308 298 314 328 330 326 323 317 312 314 316 317 319 319 320 321 322 324 324 321 317 315 314 314 316 319 322 324 325 327 327 325 327 328 327 324 322 323 325 324 322 319 318 318 319 320 321 319 311 305 302 302 305 309 310 308 306 306 309 312 314 314 314 311 309 307 306 306 305 304 305 305 303 299 293 288 288 293
29 20 315 281 306 321 290 270 284 296 308 320 324 320 317 316 318 319 319 319 319 320 322 322 320 320 321 319 316 315 315 319 324 324 324 323 322 323 323 324 327 329 326 319 320 325 327 325 321 319 319 320 321 322 321 318 313 310 309 310 314 316 313 309 308 309 311 313 314 314 312 309 307 305 305 305 305 304 304 303 301 299 295 290 290 292
337 344 319 288 310 311 288 279 299 308 314 319 319 318 318 319 321 322 321 321 321 322 323 322 319 318 318 317 316 316 319 324 325 323 322 320 317 317 318 322 327 327 321 317 320 325 326 324 321 320 320 321 322 323 322 320 317 315 314 318 319 315 311 311 311 312 314 315 316 315 313 310 308 306 306 307 306 304 303 301 299 298 295 292 289 287
346 344 331 309 320 319 301 306 317 317 319 320 318 319 321 321 321 323 322 321 321 322 323 323 321 319 317 316 317 318 322 326 324 320 319 316 313 314 317 323 327 325 319 318 324 327 326 323 322 321 322 322 323 324 324 323 321 320 320 319 317 313 313 314 314 314 316 318 318 317 315 313 311 309 309 310 309 306 304 301 297 295 293 291 289 287
336 336 330 319 321 313 300 310 318 317 315 318 319 320 322 322 321 321 321 319 319 321 321 322 322 320 318 318 319 319 322 325 322 320 317 314 313 316 320 324 326 322 317 322 327 327 323 322 322 322 322 322 324 326 327 326 326 325 321 315 313 314 315 316 316 317 319 320 319 319 318 316 314 312 311 311 310 308 305 302 298 294 290 289 287 286
333 330 329 323 316 306 303 317 322 319 316 320 323 322 322 322 320 320 321 322 321 322 321 320 320 320 319 319 318 319 322 323 322 321 318 315 316 320 322 324 324 320 321 326 327 324 322 323 323 323 323 324 326 329 329 326 324 322 319 317 317 319 320 320 320 321 322 324 325 324 323 321 318 316 313 312 311 309 305 303 299 294 290 287 284 284
344 336 335 329 320 313 316 322 325 322 315 318 322 322 322 322 320 319 322 322 323 323 323 321 320 320 319 319 319 321 321 320 321 322 320 318 320 323 323 323 322 321 324 325 324 323 324 324 324 325 325 327 328 329 328 326 325 325 325 325 325 326 325 325 324 326 329 331 331 329 328 325 322 320 316 315 313 311 309 306 302 298 294 289 286 284
353 341 336 328 312 306 312 317 321 318 310 312 317 319 319 319 319 319 321 322 322 323 324 324 322 320 320 322 325 328 324 321 321 321 320 319 322 324 324 322 323 323 324 324 323 324 325 326 327 329 328 329 330 330 328 327 328 329 329 330 331 331 330 329 328 329 333 334 333 333 332 329 327 324 320 317 314 312 311 310 307 303 298 293 291 289